When you browse on this site, cookies collect data to enhance your experience and personalize the content and advertising you see.
Visit our Privacy Policy to learn more. By continuing to use the site, you agree to this use of cookies and data.
  • en France
  • Liste des pays
  • À 7 jours
  • Température de l'eau
  • Carte météo
  • Widgets météo
  • user-avatar
    Se connecter

    Météo par heure à Tenchin

    Ce jour, 18 Août, Dimanche

    Heure Température Précipitation Vent Pression Humidité
    00:00 +19°C° 0 mm 1 m/s 737 mmHg 65%
    01:00 +19°C° 0 mm 1 m/s 737 mmHg 64%
    02:00 +19°C° 0 mm 1 m/s 737 mmHg 66%
    03:00 +19°C° 0 mm 1 m/s 737 mmHg 67%
    04:00 +19°C° 0 mm 1 m/s 737 mmHg 69%
    05:00 +19°C° 0 mm 1 m/s 737 mmHg 70%
    06:00 +20°C° 0 mm 1 m/s 737 mmHg 71%
    07:00 +20°C° 0 mm 1 m/s 737 mmHg 70%
    08:00 +20°C° 0 mm 2 m/s 737 mmHg 66%
    09:00 +23°C° 0 mm 2 m/s 737 mmHg 63%
    10:00 +24°C° 0 mm 2 m/s 737 mmHg 59%
    11:00 +25°C° 0 mm 3 m/s 737 mmHg 56%
    12:00 +27°C° 0 mm 3 m/s 737 mmHg 53%
    13:00 +28°C° 0 mm 4 m/s 737 mmHg 50%
    14:00 +29°C° 0 mm 4 m/s 737 mmHg 50%
    15:00 +29°C° 0 mm 4 m/s 737 mmHg 50%
    16:00 +29°C° 0 mm 3 m/s 737 mmHg 49%
    17:00 +27°C° 0 mm 3 m/s 737 mmHg 56%
    18:00 +26°C° 0 mm 2 m/s 737 mmHg 62%
    19:00 +24°C° 0 mm 2 m/s 736 mmHg 68%
    20:00 +23°C° 0 mm 2 m/s 737 mmHg 69%
    21:00 +21°C° 0 mm 2 m/s 737 mmHg 71%
    22:00 +21°C° 0 mm 2 m/s 737 mmHg 72%
    23:00 +20°C° 0 mm 2 m/s 737 mmHg 73%

    Demain, 19 Août, Lundi

    Heure Température Précipitation Vent Pression Humidité
    00:00 +20°C° 0 mm 2 m/s 737 mmHg 74%
    01:00 +20°C° 0 mm 2 m/s 737 mmHg 76%
    02:00 +19°C° 0 mm 2 m/s 737 mmHg 76%
    03:00 +19°C° 0 mm 2 m/s 737 mmHg 77%
    04:00 +19°C° 0 mm 2 m/s 737 mmHg 78%
    05:00 +21°C° 0 mm 1 m/s 738 mmHg 75%
    06:00 +22°C° 0 mm 1 m/s 738 mmHg 73%
    07:00 +23°C° 0 mm 1 m/s 739 mmHg 70%
    08:00 +24°C° 0 mm 1 m/s 739 mmHg 63%
    09:00 +26°C° 0 mm 2 m/s 739 mmHg 57%
    10:00 +28°C° 0 mm 2 m/s 739 mmHg 50%
    11:00 +29°C° 0 mm 3 m/s 740 mmHg 48%
    12:00 +29°C° 0 mm 3 m/s 740 mmHg 46%
    13:00 +30°C° 0 mm 4 m/s 740 mmHg 44%
    14:00 +29°C° 0.1 mm 3 m/s 740 mmHg 51%
    15:00 +27°C° 0.1 mm 3 m/s 740 mmHg 57%
    16:00 +26°C° 0.1 mm 3 m/s 740 mmHg 63%
    17:00 +24°C° 0 mm 2 m/s 740 mmHg 68%
    18:00 +23°C° 0 mm 2 m/s 740 mmHg 73%
    19:00 +22°C° 0 mm 1 m/s 740 mmHg 78%
    20:00 +21°C° 0 mm 1 m/s 741 mmHg 80%
    21:00 +21°C° 0 mm 1 m/s 741 mmHg 82%
    22:00 +20°C° 0 mm 1 m/s 741 mmHg 84%
    23:00 +20°C° 0 mm 1 m/s 741 mmHg 85%

    Après-demain, 20 Août, Mardi

    Heure Température Précipitation Vent Pression Humidité
    00:00 +18°C° 0 mm 2 m/s 741 mmHg 86%
    01:00 +18°C° 0 mm 2 m/s 741 mmHg 86%
    02:00 +19°C° 0 mm 1 m/s 741 mmHg 87%
    03:00 +19°C° 0 mm 1 m/s 741 mmHg 88%
    04:00 +19°C° 0 mm 1 m/s 741 mmHg 89%
    05:00 +20°C° 0.1 mm 1 m/s 741 mmHg 87%
    06:00 +21°C° 0.1 mm 1 m/s 742 mmHg 84%
    07:00 +22°C° 0.1 mm 1 m/s 742 mmHg 82%
    08:00 +24°C° 0.1 mm 1 m/s 742 mmHg 74%
    09:00 +26°C° 0.1 mm 1 m/s 742 mmHg 66%
    10:00 +28°C° 0.1 mm 1 m/s 742 mmHg 58%
    11:00 +29°C° 0.1 mm 2 m/s 742 mmHg 54%
    12:00 +30°C° 0.1 mm 2 m/s 742 mmHg 51%
    13:00 +31°C° 0.1 mm 3 m/s 741 mmHg 47%
    14:00 +31°C° 0.1 mm 3 m/s 741 mmHg 48%
    15:00 +31°C° 0.1 mm 3 m/s 741 mmHg 49%
    16:00 +31°C° 0.1 mm 3 m/s 740 mmHg 50%
    17:00 +30°C° 0 mm 2 m/s 740 mmHg 55%
    18:00 +28°C° 0 mm 2 m/s 740 mmHg 60%
    19:00 +26°C° 0 mm 1 m/s 739 mmHg 65%
    20:00 +25°C° 0 mm 1 m/s 739 mmHg 68%
    21:00 +24°C° 0 mm 1 m/s 739 mmHg 71%
    22:00 +23°C° 0 mm 1 m/s 739 mmHg 74%
    23:00 +23°C° 0 mm 1 m/s 740 mmHg 76%

    21 Août, Mercredi

    Heure Température Précipitation Vent Pression Humidité
    00:00 +22°C° 0 mm 1 m/s 740 mmHg 78%
    01:00 +22°C° 0 mm 1 m/s 740 mmHg 80%
    02:00 +21°C° 0 mm 1 m/s 740 mmHg 83%
    03:00 +21°C° 0 mm 1 m/s 741 mmHg 86%
    04:00 +20°C° 0 mm 1 m/s 741 mmHg 89%
    05:00 +21°C° 0 mm 1 m/s 741 mmHg 87%
    06:00 +21°C° 0 mm 1 m/s 742 mmHg 86%
    07:00 +21°C° 0 mm 2 m/s 743 mmHg 84%
    08:00 +23°C° 0 mm 2 m/s 743 mmHg 80%
    09:00 +22°C° 0 mm 3 m/s 743 mmHg 76%
    10:00 +23°C° 0 mm 4 m/s 743 mmHg 72%
    11:00 +23°C° 0 mm 4 m/s 743 mmHg 68%
    12:00 +25°C° 0 mm 4 m/s 743 mmHg 65%
    13:00 +25°C° 0 mm 5 m/s 743 mmHg 61%
    14:00 +25°C° 0.1 mm 5 m/s 743 mmHg 63%
    15:00 +23°C° 0.1 mm 5 m/s 743 mmHg 64%
    16:00 +23°C° 0.1 mm 5 m/s 743 mmHg 65%
    17:00 +21°C° 0 mm 4 m/s 743 mmHg 69%
    18:00 +20°C° 0 mm 4 m/s 743 mmHg 74%
    19:00 +18°C° 0 mm 3 m/s 743 mmHg 78%
    20:00 +18°C° 0 mm 3 m/s 743 mmHg 81%
    21:00 +17°C° 0 mm 3 m/s 744 mmHg 85%
    22:00 +16°C° 0 mm 3 m/s 744 mmHg 88%
    23:00 +16°C° 0 mm 2 m/s 744 mmHg 89%

    22 Août, Jeudi

    Heure Température Précipitation Vent Pression Humidité
    00:00 +16°C° 0 mm 2 m/s 744 mmHg 90%
    01:00 +15°C° 0 mm 2 m/s 744 mmHg 91%
    02:00 +15°C° 0 mm 2 m/s 743 mmHg 92%
    03:00 +15°C° 0 mm 2 m/s 743 mmHg 92%
    04:00 +15°C° 0 mm 2 m/s 743 mmHg 92%
    05:00 +16°C° 0 mm 2 m/s 743 mmHg 88%
    06:00 +17°C° 0 mm 2 m/s 744 mmHg 84%
    07:00 +18°C° 0 mm 2 m/s 744 mmHg 80%
    08:00 +19°C° 0 mm 2 m/s 744 mmHg 74%
    09:00 +21°C° 0 mm 2 m/s 744 mmHg 69%
    10:00 +24°C° 0 mm 3 m/s 744 mmHg 63%
    11:00 +25°C° 0 mm 3 m/s 744 mmHg 60%
    12:00 +25°C° 0 mm 3 m/s 744 mmHg 57%
    13:00 +26°C° 0 mm 3 m/s 744 mmHg 55%
    14:00 +26°C° 0 mm 3 m/s 743 mmHg 56%
    15:00 +26°C° 0 mm 3 m/s 743 mmHg 57%
    16:00 +26°C° 0 mm 3 m/s 743 mmHg 58%
    17:00 +24°C° 0 mm 3 m/s 743 mmHg 64%
    18:00 +21°C° 0 mm 3 m/s 743 mmHg 71%
    19:00 +19°C° 0 mm 2 m/s 743 mmHg 77%
    20:00 +18°C° 0 mm 2 m/s 744 mmHg 80%
    21:00 +17°C° 0 mm 2 m/s 744 mmHg 83%
    22:00 +16°C° 0 mm 2 m/s 744 mmHg 85%
    23:00 +15°C° 0 mm 2 m/s 744 mmHg 87%

    23 Août, Vendredi

    Heure Température Précipitation Vent Pression Humidité
    00:00 +15°C° 0 mm 2 m/s 744 mmHg 89%
    01:00 +14°C° 0 mm 2 m/s 744 mmHg 91%
    02:00 +14°C° 0 mm 2 m/s 744 mmHg 92%
    03:00 +14°C° 0 mm 2 m/s 744 mmHg 93%
    04:00 +13°C° 0 mm 2 m/s 744 mmHg 94%
    05:00 +14°C° 0 mm 2 m/s 744 mmHg 89%
    06:00 +16°C° 0 mm 2 m/s 744 mmHg 83%
    07:00 +17°C° 0 mm 3 m/s 745 mmHg 78%
    08:00 +19°C° 0 mm 3 m/s 745 mmHg 71%
    09:00 +21°C° 0 mm 3 m/s 745 mmHg 63%
    10:00 +25°C° 0 mm 2 m/s 745 mmHg 56%
    11:00 +26°C° 0 mm 2 m/s 745 mmHg 53%
    12:00 +27°C° 0 mm 2 m/s 745 mmHg 50%
    13:00 +28°C° 0 mm 2 m/s 745 mmHg 47%
    14:00 +28°C° 0 mm 2 m/s 745 mmHg 48%
    15:00 +28°C° 0 mm 2 m/s 744 mmHg 48%
    16:00 +28°C° 0 mm 2 m/s 744 mmHg 48%
    17:00 +25°C° 0 mm 2 m/s 744 mmHg 57%
    18:00 +23°C° 0 mm 2 m/s 744 mmHg 66%
    19:00 +21°C° 0 mm 1 m/s 744 mmHg 75%
    20:00 +20°C° 0 mm 1 m/s 744 mmHg 79%
    21:00 +19°C° 0 mm 1 m/s 744 mmHg 82%
    22:00 +18°C° 0 mm 1 m/s 744 mmHg 85%
    23:00 +16°C° 0 mm 1 m/s 744 mmHg 86%
    Voir plus